Weather History for KIRK - March, 2014

Change the Weather History Date:

Thursday, March 20, 2014

  Actual Average Record
Temperature  
Mean Temperature 46 °F 42 °F  
Max Temperature 67 °F 53 °F - ()
Min Temperature 24 °F 32 °F - ()
Degree Days  
Heating Degree Days 19 23  
Month to date heating degree days 631 531  
Since 1 July heating degree days 5601 5064  
Cooling Degree Days 0 0  
Month to date cooling degree days 0 0  
Year to date cooling degree days 0 0  
Moisture  
Dew Point 27 °F    
Average Humidity 52    
Maximum Humidity 81    
Minimum Humidity 22    
Precipitation  
Precipitation 0.00 in 0.08 in - ()
Month to date precipitation 0.77 1.68  
Year to date precipitation 4.32 4.48  
Sea Level Pressure  
Sea Level Pressure 30.00 in    
Wind  
Wind Speed 7 mph (SW)    
Max Wind Speed 17 mph    
Max Gust Speed 24 mph    
Visibility 10 miles    
Events      
T = Trace of Precipitation, MM = Missing Value Source: NWS Daily Summary

Daily Weather History Graph

Daily Weather History Graph

Search for Another Location

Airport or City:

Trip Planner

Search our weather history database for the weather conditions in past years. The results will help you decide how hot, cold, wet, or windy it might be!

Date:

Astronomy

Mar. 20, 2014 Rise Set
Actual Time 7:13 AM CDT 7:22 PM CDT
Civil Twilight 6:46 AM CDT 7:49 PM CDT
Nautical Twilight 6:14 AM CDT 8:21 PM CDT
Astronomical Twilight 5:42 AM CDT 8:53 PM CDT
Moon 11:42 PM CDT (3/20) 9:20 AM CDT (3/20)
Length of Visible Light 13h 02m
Length of Day
12h 08m
Waning Gibbous, 84% of the Moon is Illuminated
Mar 20
Waning Gibbous
Mar 23
Last Quarter
Mar 30
New
Apr 7
First Quarter
Apr 15
Full

Hourly Weather History & Observations

Time (CDT) Temp. Windchill Dew Point Humidity Pressure Visibility Wind Dir Wind Speed Gust Speed Precip Events Conditions
12:55 AM 32.0 °F 26.4 °F 24.1 °F 73% 30.11 in 10.0 mi SW 5.8 mph - N/A   Clear
1:55 AM 34.0 °F 28.8 °F 24.1 °F 67% 30.10 in 10.0 mi SSW 5.8 mph - N/A   Mostly Cloudy
2:55 AM 35.1 °F 30.1 °F 25.0 °F 67% 30.09 in 10.0 mi SW 5.8 mph - N/A   Mostly Cloudy
3:55 AM 34.0 °F 28.8 °F 23.0 °F 64% 30.08 in 10.0 mi SW 5.8 mph - N/A   Clear
4:55 AM 32.0 °F 27.5 °F 23.0 °F 69% 30.08 in 10.0 mi SSW 4.6 mph - N/A   Clear
5:55 AM 32.0 °F 27.5 °F 23.0 °F 69% 30.09 in 10.0 mi SW 4.6 mph - N/A   Clear
6:55 AM 25.0 °F 19.3 °F 19.9 °F 81% 30.11 in 10.0 mi NW 4.6 mph - N/A   Clear
7:55 AM 34.0 °F 31.0 °F 25.0 °F 70% 30.10 in 10.0 mi West 3.5 mph - N/A   Clear
8:55 AM 39.0 °F 36.8 °F 27.0 °F 62% 30.10 in 10.0 mi West 3.5 mph - N/A   Clear
9:55 AM 44.1 °F - 27.0 °F 51% 30.10 in 10.0 mi Calm Calm - N/A   Clear
10:55 AM 46.9 °F - 28.0 °F 48% 30.09 in 10.0 mi Calm Calm - N/A   Clear
11:55 AM 54.0 °F - 27.0 °F 35% 30.06 in 10.0 mi SSW 9.2 mph - N/A   Clear
12:55 PM 55.9 °F - 28.0 °F 34% 30.03 in 10.0 mi SSW 9.2 mph - N/A   Clear
1:55 PM 59.0 °F - 27.0 °F 29% 30.00 in 10.0 mi SW 9.2 mph 16.1 mph N/A   Clear
2:55 PM 63.0 °F - 26.1 °F 25% 29.95 in 10.0 mi WSW 13.8 mph 17.3 mph N/A   Clear
3:55 PM 64.9 °F - 27.0 °F 24% 29.91 in 10.0 mi SSW 9.2 mph - N/A   Clear
4:55 PM 66.0 °F - 27.0 °F 23% 29.88 in 10.0 mi SW 9.2 mph 16.1 mph N/A   Clear
5:55 PM 64.9 °F - 27.0 °F 24% 29.88 in 10.0 mi SW 9.2 mph - N/A   Clear
6:55 PM 62.1 °F - 27.0 °F 26% 29.87 in 10.0 mi SSW 6.9 mph - N/A   Overcast
7:55 PM 52.0 °F - 30.9 °F 45% 29.87 in 10.0 mi SSE 10.4 mph - N/A   Scattered Clouds
8:55 PM 48.9 °F - 33.1 °F 54% 29.88 in 10.0 mi ENE 9.2 mph - N/A   Clear
9:55 PM 46.9 °F - 33.1 °F 59% 29.88 in 10.0 mi ENE 9.2 mph - N/A   Clear
10:55 PM 42.1 °F 36.1 °F 33.1 °F 70% 29.89 in 10.0 mi NE 10.4 mph - N/A   Clear
11:55 PM 39.9 °F 35.1 °F 32.0 °F 73% 29.89 in 10.0 mi NE 6.9 mph - N/A   Clear